owner,sensor,date,latitude,longitude,vertical_datum,direction_of_sea_water_velocity,sea_water_speed,upward_sea_water_velocity,qcFlag 
TABS,ioos:station:wmo:42051:1,2006-02-01T00:00:00Z,29.6350,-93.6417,2.0,263.9890091,19.00447579,-99999.0,'11111222,11111222,99999999' 
TABS,ioos:station:wmo:42051:1,2006-02-01T00:30:00Z,29.6350,-93.6417,2.0,259.9968636,18.99879207,-99999.0,'11111222,11111222,99999999' 
TABS,ioos:station:wmo:42051:1,2006-02-01T01:00:00Z,29.6350,-93.6417,2.0,263.9905872,17.00342613,-99999.0,'11111222,11111222,99999999' 
TABS,ioos:station:wmo:42051:1,2006-02-01T01:30:00Z,29.6350,-93.6417,2.0,254.9984966,18.00354687,-99999.0,'11111222,11111222,99999999' 
TABS,ioos:station:wmo:42051:1,2006-02-01T02:00:00Z,29.6350,-93.6417,2.0,253.9847768,16.99975588,-99999.0,'11111222,11111222,99999999' 
TABS,ioos:station:wmo:42051:1,2006-02-01T02:30:00Z,29.6350,-93.6417,2.0,262.9862172,14.00478847,-99999.0,'11111222,11111222,99999999' 
TABS,ioos:station:wmo:42051:1,2006-02-01T03:00:00Z,29.6350,-93.6417,2.0,262.9930076,15.0020332,-99999.0,'11111222,11111222,99999999' 
TABS,ioos:station:wmo:42051:1,2006-02-01T03:30:00Z,29.6350,-93.6417,2.0,262.9862172,14.00478847,-99999.0,'11111222,11111222,99999999' 
TABS,ioos:station:wmo:42051:1,2006-02-01T04:00:00Z,29.6350,-93.6417,2.0,264.0074592,15.99740604,-99999.0,'11111222,11111222,99999999' 
TABS,ioos:station:wmo:42051:1,2006-02-01T04:30:00Z,29.6350,-93.6417,2.0,274.9841094,16.00049062,-99999.0,'11111222,11111222,99999999' 
TABS,ioos:station:wmo:42051:1,2006-02-01T05:00:00Z,29.6350,-93.6417,2.0,275.0115199,14.99732309,-99999.0,'11111222,11111222,99999999' 
TABS,ioos:station:wmo:42051:1,2006-02-01T05:30:00Z,29.6350,-93.6417,2.0,276.0047995,13.00132686,-99999.0,'11111222,11111222,99999999' 
TABS,ioos:station:wmo:42051:1,2006-02-01T06:00:00Z,29.6350,-93.6417,2.0,274.9873324,12.99920767,-99999.0,'11111222,11111222,99999999' 
TABS,ioos:station:wmo:42051:1,2006-02-01T06:30:00Z,29.6350,-93.6417,2.0,274.9873324,12.99920767,-99999.0,'11111222,11111222,99999999' 
TABS,ioos:station:wmo:42051:1,2006-02-01T07:00:00Z,29.6350,-93.6417,2.0,278.0139984,15.99620267,-99999.0,'11111222,11111222,99999999' 
TABS,ioos:station:wmo:42051:1,2006-02-01T07:30:00Z,29.6350,-93.6417,2.0,278.0139984,15.99620267,-99999.0,'11111222,11111222,99999999' 
TABS,ioos:station:wmo:42051:1,2006-02-01T08:00:00Z,29.6350,-93.6417,2.0,274.9841094,16.00049062,-99999.0,'11111222,11111222,99999999' 
TABS,ioos:station:wmo:42051:1,2006-02-01T08:30:00Z,29.6350,-93.6417,2.0,274.9841094,16.00049062,-99999.0,'11111222,11111222,99999999' 
TABS,ioos:station:wmo:42051:1,2006-02-01T09:00:00Z,29.6350,-93.6417,2.0,270.0004209,18.0,-99999.0,'11111222,11111222,99999999' 
TABS,ioos:station:wmo:42051:1,2006-02-01T09:30:00Z,29.6350,-93.6417,2.0,263.9890091,19.00447579,-99999.0,'11111222,11111222,99999999' 
TABS,ioos:station:wmo:42051:1,2006-02-01T10:00:00Z,29.6350,-93.6417,2.0,267.0068695,18.00455498,-99999.0,'11111222,11111222,99999999' 
TABS,ioos:station:wmo:42051:1,2006-02-01T10:30:00Z,29.6350,-93.6417,2.0,256.9985518,20.00275231,-99999.0,'11111222,11111222,99999999' 
TABS,ioos:station:wmo:42051:1,2006-02-01T11:00:00Z,29.6350,-93.6417,2.0,266.9991961,17.0033085,-99999.0,'11111222,11111222,99999999' 
TABS,ioos:station:wmo:42051:1,2006-02-01T11:30:00Z,29.6350,-93.6417,2.0,258.0093231,18.00276923,-99999.0,'11111222,11111222,99999999' 
TABS,ioos:station:wmo:42051:1,2006-02-01T12:00:00Z,29.6350,-93.6417,2.0,258.0154822,17.00052352,-99999.0,'11111222,11111222,99999999' 
TABS,ioos:station:wmo:42051:1,2006-02-01T12:30:00Z,29.6350,-93.6417,2.0,247.9996475,15.00241647,-99999.0,'11111222,11111222,99999999' 
TABS,ioos:station:wmo:42051:1,2006-02-01T13:00:00Z,29.6350,-93.6417,2.0,251.0088916,14.99622619,-99999.0,'11111222,11111222,99999999' 
TABS,ioos:station:wmo:42051:1,2006-02-01T13:30:00Z,29.6350,-93.6417,2.0,245.0043798,15.99836242,-99999.0,'11111222,11111222,99999999' 
TABS,ioos:station:wmo:42051:1,2006-02-01T14:00:00Z,29.6350,-93.6417,2.0,246.0163673,13.9985785,-99999.0,'11111222,11111222,99999999' 
TABS,ioos:station:wmo:42051:1,2006-02-01T14:30:00Z,29.6350,-93.6417,2.0,236.0050404,12.00110828,-99999.0,'11111222,11111222,99999999' 
TABS,ioos:station:wmo:42051:1,2006-02-01T15:00:00Z,29.6350,-93.6417,2.0,239.990734,13.99622806,-99999.0,'11111222,11111222,99999999' 
TABS,ioos:station:wmo:42051:1,2006-02-01T15:30:00Z,29.6350,-93.6417,2.0,247.9935649,12.99689963,-99999.0,'11111222,11111222,99999999' 
TABS,ioos:station:wmo:42051:1,2006-02-01T16:00:00Z,29.6350,-93.6417,2.0,251.9828823,12.99730741,-99999.0,'11111222,11111222,99999999' 
TABS,ioos:station:wmo:42051:1,2006-02-01T16:30:00Z,29.6350,-93.6417,2.0,275.0115199,14.99732309,-99999.0,'11111222,11111222,99999999' 
TABS,ioos:station:wmo:42051:1,2006-02-01T17:00:00Z,29.6350,-93.6417,2.0,282.0071011,14.99810988,-99999.0,'11111222,11111222,99999999' 
TABS,ioos:station:wmo:42051:1,2006-02-01T17:30:00Z,29.6350,-93.6417,2.0,278.0160848,16.99605248,-99999.0,'11111222,11111222,99999999' 
TABS,ioos:station:wmo:42051:1,2006-02-01T18:00:00Z,29.6350,-93.6417,2.0,278.0160848,16.99605248,-99999.0,'11111222,11111222,99999999' 
TABS,ioos:station:wmo:42051:1,2006-02-01T18:30:00Z,29.6350,-93.6417,2.0,260.0098745,20.00327223,-99999.0,'11111222,11111222,99999999' 
TABS,ioos:station:wmo:42051:1,2006-02-01T19:00:00Z,29.6350,-93.6417,2.0,268.9970076,20.00306227,-99999.0,'11111222,11111222,99999999' 
TABS,ioos:station:wmo:42051:1,2006-02-01T19:30:00Z,29.6350,-93.6417,2.0,273.0031628,20.99883092,-99999.0,'11111222,11111222,99999999' 
TABS,ioos:station:wmo:42051:1,2006-02-01T20:00:00Z,29.6350,-93.6417,2.0,276.0031653,24.00160411,-99999.0,'11111222,11111222,99999999' 
TABS,ioos:station:wmo:42051:1,2006-02-01T20:30:00Z,29.6350,-93.6417,2.0,278.0027446,26.00320942,-99999.0,'11111222,11111222,99999999' 
TABS,ioos:station:wmo:42051:1,2006-02-01T21:00:00Z,29.6350,-93.6417,2.0,270.0004209,26.0,-99999.0,'11111222,11111222,99999999' 
TABS,ioos:station:wmo:42051:1,2006-02-01T21:30:00Z,29.6350,-93.6417,2.0,275.9960828,26.99768323,-99999.0,'11111222,11111222,99999999' 
TABS,ioos:station:wmo:42051:1,2006-02-01T22:00:00Z,29.6350,-93.6417,2.0,280.9981489,26.99578671,-99999.0,'11111222,11111222,99999999' 
TABS,ioos:station:wmo:42051:1,2006-02-01T22:30:00Z,29.6350,-93.6417,2.0,263.9952005,26.00265371,-99999.0,'11111222,11111222,99999999' 
TABS,ioos:station:wmo:42051:1,2006-02-01T23:00:00Z,29.6350,-93.6417,2.0,254.9957503,27.00049074,-99999.0,'11111222,11111222,99999999' 
TABS,ioos:station:wmo:42051:1,2006-02-01T23:30:00Z,29.6350,-93.6417,2.0,262.9975606,26.00394201,-99999.0,'11111222,11111222,99999999' 
TABS,ioos:station:wmo:42051:1,2006-02-02T00:00:00Z,29.6350,-93.6417,2.0,253.9980152,28.00508525,-99999.0,'11111222,11111222,99999999' 
TABS,ioos:station:wmo:42051:1,2006-02-02T00:30:00Z,29.6350,-93.6417,2.0,261.0083528,23.9948432,-99999.0,'11111222,11111222,99999999' 
TABS,ioos:station:wmo:42051:1,2006-02-02T01:00:00Z,29.6350,-93.6417,2.0,257.0084283,24.99988,-99999.0,'11111222,11111222,99999999' 
TABS,ioos:station:wmo:42051:1,2006-02-02T01:30:00Z,29.6350,-93.6417,2.0,264.006184,24.99663377,-99999.0,'11111222,11111222,99999999' 
TABS,ioos:station:wmo:42051:1,2006-02-02T02:00:00Z,29.6350,-93.6417,2.0,275.9911546,22.99558436,-99999.0,'11111222,11111222,99999999' 
TABS,ioos:station:wmo:42051:1,2006-02-02T02:30:00Z,29.6350,-93.6417,2.0,246.0093192,22.99657801,-99999.0,'11111222,11111222,99999999' 
TABS,ioos:station:wmo:42051:1,2006-02-02T03:00:00Z,29.6350,-93.6417,2.0,248.9983157,25.00074399,-99999.0,'11111222,11111222,99999999' 
TABS,ioos:station:wmo:42051:1,2006-02-02T03:30:00Z,29.6350,-93.6417,2.0,251.0070691,25.99515339,-99999.0,'11111222,11111222,99999999' 
TABS,ioos:station:wmo:42051:1,2006-02-02T04:00:00Z,29.6350,-93.6417,2.0,242.9861428,23.9982166,-99999.0,'11111222,11111222,99999999' 
TABS,ioos:station:wmo:42051:1,2006-02-02T04:30:00Z,29.6350,-93.6417,2.0,247.9987086,23.99755404,-99999.0,'11111222,11111222,99999999' 
TABS,ioos:station:wmo:42051:1,2006-02-02T05:00:00Z,29.6350,-93.6417,2.0,262.9918427,19.99940249,-99999.0,'11111222,11111222,99999999' 
TABS,ioos:station:wmo:42051:1,2006-02-02T05:30:00Z,29.6350,-93.6417,2.0,241.9945682,20.99883806,-99999.0,'11111222,11111222,99999999' 
TABS,ioos:station:wmo:42051:1,2006-02-02T06:00:00Z,29.6350,-93.6417,2.0,241.9945682,20.99883806,-99999.0,'11111222,11111222,99999999' 
TABS,ioos:station:wmo:42051:1,2006-02-02T06:30:00Z,29.6350,-93.6417,2.0,247.9905001,21.00042381,-99999.0,'11111222,11111222,99999999' 
TABS,ioos:station:wmo:42051:1,2006-02-02T07:00:00Z,29.6350,-93.6417,2.0,263.9890091,19.00447579,-99999.0,'11111222,11111222,99999999' 
TABS,ioos:station:wmo:42051:1,2006-02-02T07:30:00Z,29.6350,-93.6417,2.0,242.0093005,16.00178115,-99999.0,'11111222,11111222,99999999' 
TABS,ioos:station:wmo:42051:1,2006-02-02T08:00:00Z,29.6350,-93.6417,2.0,252.0175939,16.00162492,-99999.0,'11111222,11111222,99999999' 
TABS,ioos:station:wmo:42051:1,2006-02-02T08:30:00Z,29.6350,-93.6417,2.0,263.0167519,12.9963995,-99999.0,'11111222,11111222,99999999' 
TABS,ioos:station:wmo:42051:1,2006-02-02T09:00:00Z,29.6350,-93.6417,2.0,255.0101839,6.998121176,-99999.0,'11133222,11111222,99999999' 
TABS,ioos:station:wmo:42051:1,2006-02-02T09:30:00Z,29.6350,-93.6417,2.0,241.9608661,7.998824914,-99999.0,'11133222,11111222,99999999' 
TABS,ioos:station:wmo:42051:1,2006-02-02T10:00:00Z,29.6350,-93.6417,2.0,263.9756001,8.004198898,-99999.0,'11133222,11111222,99999999' 
TABS,ioos:station:wmo:42051:1,2006-02-02T10:30:00Z,29.6350,-93.6417,2.0,277.9864099,8.997255137,-99999.0,'11133222,11111222,99999999' 
TABS,ioos:station:wmo:42051:1,2006-02-02T11:00:00Z,29.6350,-93.6417,2.0,242.0249146,9.998249847,-99999.0,'11133222,11111222,99999999' 
TABS,ioos:station:wmo:42051:1,2006-02-02T11:30:00Z,29.6350,-93.6417,2.0,237.0172646,11.00331768,-99999.0,'11111222,11111222,99999999' 
TABS,ioos:station:wmo:42051:1,2006-02-02T12:00:00Z,29.6350,-93.6417,2.0,224.9996843,9.998489886,-99999.0,'11133222,11111222,99999999' 
TABS,ioos:station:wmo:42051:1,2006-02-02T12:30:00Z,29.6350,-93.6417,2.0,212.9835503,9.000694418,-99999.0,'11133222,11111222,99999999' 
TABS,ioos:station:wmo:42051:1,2006-02-02T13:00:00Z,29.6350,-93.6417,2.0,224.9996843,4.002224382,-99999.0,'11133222,11111222,99999999' 
TABS,ioos:station:wmo:42051:1,2006-02-02T13:30:00Z,29.6350,-93.6417,2.0,207.0038171,7.003570518,-99999.0,'11133222,11111222,99999999' 
TABS,ioos:station:wmo:42051:1,2006-02-02T14:00:00Z,29.6350,-93.6417,2.0,202.9724572,4.996248593,-99999.0,'11133222,11111222,99999999' 
TABS,ioos:station:wmo:42051:1,2006-02-02T14:30:00Z,29.6350,-93.6417,2.0,219.0472388,6.000333324,-99999.0,'11133222,11111222,99999999' 
TABS,ioos:station:wmo:42051:1,2006-02-02T15:00:00Z,29.6350,-93.6417,2.0,216.0036736,8.999027725,-99999.0,'11133222,11111222,99999999' 
TABS,ioos:station:wmo:42051:1,2006-02-02T15:30:00Z,29.6350,-93.6417,2.0,207.020174,9.002694041,-99999.0,'11133222,11111222,99999999' 
TABS,ioos:station:wmo:42051:1,2006-02-02T16:00:00Z,29.6350,-93.6417,2.0,141.0380475,7.999331222,-99999.0,'11133222,11111222,99999999' 
TABS,ioos:station:wmo:42051:1,2006-02-02T16:30:00Z,29.6350,-93.6417,2.0,113.9697049,7.9999125,-99999.0,'11133222,11111222,99999999' 
TABS,ioos:station:wmo:42051:1,2006-02-02T17:00:00Z,29.6350,-93.6417,2.0,111.032891,8.999605547,-99999.0,'11133222,11111222,99999999' 
TABS,ioos:station:wmo:42051:1,2006-02-02T17:30:00Z,29.6350,-93.6417,2.0,117.0203845,9.002694041,-99999.0,'11133222,11111222,99999999' 
TABS,ioos:station:wmo:42051:1,2006-02-02T18:00:00Z,29.6350,-93.6417,2.0,90.0,5.0,-99999.0,'11133222,11111222,99999999' 
TABS,ioos:station:wmo:42051:1,2006-02-02T18:30:00Z,29.6350,-93.6417,2.0,112.9726676,4.996248593,-99999.0,'11133222,11111222,99999999' 
TABS,ioos:station:wmo:42051:1,2006-02-02T19:00:00Z,29.6350,-93.6417,2.0,121.995189,12.00341618,-99999.0,'11111222,11111222,99999999' 
TABS,ioos:station:wmo:42051:1,2006-02-02T19:30:00Z,29.6350,-93.6417,2.0,139.9912164,13.00350722,-99999.0,'11111222,11111222,99999999' 
TABS,ioos:station:wmo:42051:1,2006-02-02T20:00:00Z,29.6350,-93.6417,2.0,148.9756351,12.99959999,-99999.0,'11111222,11111222,99999999' 
TABS,ioos:station:wmo:42051:1,2006-02-02T20:30:00Z,29.6350,-93.6417,2.0,173.9758105,8.004198898,-99999.0,'11133222,11111222,99999999' 
TABS,ioos:station:wmo:42051:1,2006-02-02T21:00:00Z,29.6350,-93.6417,2.0,192.0064698,9.998739921,-99999.0,'11133222,11111222,99999999' 
TABS,ioos:station:wmo:42051:1,2006-02-02T21:30:00Z,29.6350,-93.6417,2.0,171.0000938,10.99536266,-99999.0,'11111222,11111222,99999999' 
TABS,ioos:station:wmo:42051:1,2006-02-02T22:00:00Z,29.6350,-93.6417,2.0,228.0124648,6.995884504,-99999.0,'11133222,11111222,99999999' 
TABS,ioos:station:wmo:42051:1,2006-02-02T22:30:00Z,29.6350,-93.6417,2.0,165.0103944,6.998121176,-99999.0,'11133222,11111222,99999999' 
TABS,ioos:station:wmo:42051:1,2006-02-02T23:00:00Z,29.6350,-93.6417,2.0,168.0029183,8.996493761,-99999.0,'11133222,11111222,99999999' 
TABS,ioos:station:wmo:42051:1,2006-02-02T23:30:00Z,29.6350,-93.6417,2.0,169.9818785,10.00250469,-99999.0,'11111222,11111222,99999999' 
TABS,ioos:station:wmo:42051:1,2006-02-03T00:00:00Z,29.6350,-93.6417,2.0,169.9818785,10.00250469,-99999.0,'11111222,11111222,99999999' 
TABS,ioos:station:wmo:42051:1,2006-02-03T00:30:00Z,29.6350,-93.6417,2.0,170.9849799,11.99820403,-99999.0,'11111222,11111222,99999999' 
TABS,ioos:station:wmo:42051:1,2006-02-03T01:00:00Z,29.6350,-93.6417,2.0,170.9849799,11.99820403,-99999.0,'11111222,11111222,99999999' 
TABS,ioos:station:wmo:42051:1,2006-02-03T01:30:00Z,29.6350,-93.6417,2.0,175.9856232,11.99943749,-99999.0,'11111222,11111222,99999999' 
TABS,ioos:station:wmo:42051:1,2006-02-03T02:00:00Z,29.6350,-93.6417,2.0,175.9856232,11.99943749,-99999.0,'11111222,11111222,99999999' 
TABS,ioos:station:wmo:42051:1,2006-02-03T02:30:00Z,29.6350,-93.6417,2.0,177.0009102,12.99779981,-99999.0,'11111222,11111222,99999999' 
TABS,ioos:station:wmo:42051:1,2006-02-03T03:00:00Z,29.6350,-93.6417,2.0,184.986701,12.99920767,-99999.0,'11111222,11111222,99999999' 
TABS,ioos:station:wmo:42051:1,2006-02-03T03:30:00Z,29.6350,-93.6417,2.0,195.0003945,15.99506486,-99999.0,'11111222,11111222,99999999' 
TABS,ioos:station:wmo:42051:1,2006-02-03T04:00:00Z,29.6350,-93.6417,2.0,200.9936916,16.99838228,-99999.0,'11111222,11111222,99999999' 
TABS,ioos:station:wmo:42051:1,2006-02-03T04:30:00Z,29.6350,-93.6417,2.0,209.9972642,18.00133606,-99999.0,'11111222,11111222,99999999' 
TABS,ioos:station:wmo:42051:1,2006-02-03T05:00:00Z,29.6350,-93.6417,2.0,213.0011619,15.00017667,-99999.0,'11111222,11111222,99999999' 
TABS,ioos:station:wmo:42051:1,2006-02-03T05:30:00Z,29.6350,-93.6417,2.0,204.0024833,13.00455689,-99999.0,'11111222,11111222,99999999' 
TABS,ioos:station:wmo:42051:1,2006-02-03T06:00:00Z,29.6350,-93.6417,2.0,201.0326805,8.999605547,-99999.0,'11133222,11111222,99999999' 
TABS,ioos:station:wmo:42051:1,2006-02-03T06:30:00Z,29.6350,-93.6417,2.0,197.0362547,6.997042232,-99999.0,'11133222,11111222,99999999' 
TABS,ioos:station:wmo:42051:1,2006-02-03T07:00:00Z,29.6350,-93.6417,2.0,207.0038171,7.003570518,-99999.0,'11133222,11111222,99999999' 
TABS,ioos:station:wmo:42051:1,2006-02-03T07:30:00Z,29.6350,-93.6417,2.0,207.0038171,7.003570518,-99999.0,'11133222,11111222,99999999' 
TABS,ioos:station:wmo:42051:1,2006-02-03T08:00:00Z,29.6350,-93.6417,2.0,230.0140735,11.0022634,-99999.0,'11111222,11111222,99999999' 
TABS,ioos:station:wmo:42051:1,2006-02-03T08:30:00Z,29.6350,-93.6417,2.0,233.0063239,12.99603016,-99999.0,'11111222,11111222,99999999' 
TABS,ioos:station:wmo:42051:1,2006-02-03T09:00:00Z,29.6350,-93.6417,2.0,246.0163673,13.9985785,-99999.0,'11111222,11111222,99999999' 
TABS,ioos:station:wmo:42051:1,2006-02-03T09:30:00Z,29.6350,-93.6417,2.0,240.0444849,10.81466134,-99999.0,'11111222,11111222,99999999' 
TABS,ioos:station:wmo:42051:1,2006-02-03T10:00:00Z,29.6350,-93.6417,2.0,247.9996475,15.00241647,-99999.0,'11111222,11111222,99999999' 
TABS,ioos:station:wmo:42051:1,2006-02-03T10:30:00Z,29.6350,-93.6417,2.0,243.0076557,15.00443268,-99999.0,'11111222,11111222,99999999' 
TABS,ioos:station:wmo:42051:1,2006-02-03T11:00:00Z,29.6350,-93.6417,2.0,242.0093005,16.00178115,-99999.0,'11111222,11111222,99999999' 
TABS,ioos:station:wmo:42051:1,2006-02-03T11:30:00Z,29.6350,-93.6417,2.0,244.9865905,17.99800545,-99999.0,'11111222,11111222,99999999' 
TABS,ioos:station:wmo:42051:1,2006-02-03T12:00:00Z,29.6350,-93.6417,2.0,247.9916717,16.99866171,-99999.0,'11111222,11111222,99999999' 
TABS,ioos:station:wmo:42051:1,2006-02-03T12:30:00Z,29.6350,-93.6417,2.0,238.9965841,19.99673973,-99999.0,'11111222,11111222,99999999' 
TABS,ioos:station:wmo:42051:1,2006-02-03T13:00:00Z,29.6350,-93.6417,2.0,246.0163673,13.9985785,-99999.0,'11111222,11111222,99999999' 
TABS,ioos:station:wmo:42051:1,2006-02-03T13:30:00Z,29.6350,-93.6417,2.0,238.9838763,17.00066175,-99999.0,'11111222,11111222,99999999' 
TABS,ioos:station:wmo:42051:1,2006-02-03T14:00:00Z,29.6350,-93.6417,2.0,245.0104315,20.00248485,-99999.0,'11111222,11111222,99999999' 
TABS,ioos:station:wmo:42051:1,2006-02-03T14:30:00Z,29.6350,-93.6417,2.0,247.9916717,16.99866171,-99999.0,'11111222,11111222,99999999' 
TABS,ioos:station:wmo:42051:1,2006-02-03T15:00:00Z,29.6350,-93.6417,2.0,238.9945337,19.00547816,-99999.0,'11111222,11111222,99999999' 
TABS,ioos:station:wmo:42051:1,2006-02-03T15:30:00Z,29.6350,-93.6417,2.0,246.0131888,16.99791164,-99999.0,'11111222,11111222,99999999' 
TABS,ioos:station:wmo:42051:1,2006-02-03T16:00:00Z,29.6350,-93.6417,2.0,246.0131888,16.99791164,-99999.0,'11111222,11111222,99999999' 
TABS,ioos:station:wmo:42051:1,2006-02-03T16:30:00Z,29.6350,-93.6417,2.0,247.9916717,16.99866171,-99999.0,'11111222,11111222,99999999' 
TABS,ioos:station:wmo:42051:1,2006-02-03T17:00:00Z,29.6350,-93.6417,2.0,245.0043798,15.99836242,-99999.0,'11111222,11111222,99999999' 
TABS,ioos:station:wmo:42051:1,2006-02-03T17:30:00Z,29.6350,-93.6417,2.0,155.0540342,6.330600287,-99999.0,'11133222,11111222,99999999' 
TABS,ioos:station:wmo:42051:1,2006-02-03T18:00:00Z,29.6350,-93.6417,2.0,249.0161042,16.00114058,-99999.0,'11111222,11111222,99999999' 
TABS,ioos:station:wmo:42051:1,2006-02-03T18:30:00Z,29.6350,-93.6417,2.0,245.0043798,15.99836242,-99999.0,'11111222,11111222,99999999' 
TABS,ioos:station:wmo:42051:1,2006-02-03T19:00:00Z,29.6350,-93.6417,2.0,248.98856,14.00090354,-99999.0,'11111222,11111222,99999999' 
TABS,ioos:station:wmo:42051:1,2006-02-03T19:30:00Z,29.6350,-93.6417,2.0,264.0039172,17.99845549,-99999.0,'11111222,11111222,99999999' 
TABS,ioos:station:wmo:42051:1,2006-02-03T20:00:00Z,29.6350,-93.6417,2.0,259.0135232,17.00157934,-99999.0,'11111222,11111222,99999999' 
TABS,ioos:station:wmo:42051:1,2006-02-03T20:30:00Z,29.6350,-93.6417,2.0,256.9866087,11.67995291,-99999.0,'11111222,11111222,99999999' 
TABS,ioos:station:wmo:42051:1,2006-02-03T21:00:00Z,29.6350,-93.6417,2.0,262.9930076,15.0020332,-99999.0,'11111222,11111222,99999999' 
TABS,ioos:station:wmo:42051:1,2006-02-03T21:30:00Z,29.6350,-93.6417,2.0,229.9887149,20.00204989,-99999.0,'11111222,11111222,99999999' 
TABS,ioos:station:wmo:42051:1,2006-02-03T22:00:00Z,29.6350,-93.6417,2.0,230.994221,22.00528346,-99999.0,'11111222,11111222,99999999' 
TABS,ioos:station:wmo:42051:1,2006-02-03T22:30:00Z,29.6350,-93.6417,2.0,214.9992377,25.00131997,-99999.0,'11111222,11111222,99999999' 
TABS,ioos:station:wmo:42051:1,2006-02-03T23:00:00Z,29.6350,-93.6417,2.0,217.9960001,28.99560311,-99999.0,'11111222,11111222,99999999' 
TABS,ioos:station:wmo:42051:1,2006-02-03T23:30:00Z,29.6350,-93.6417,2.0,233.9891379,20.00224987,-99999.0,'11111222,11111222,99999999' 
TABS,ioos:station:wmo:42051:1,2006-02-04T00:00:00Z,29.6350,-93.6417,2.0,241.9891763,24.99824994,-99999.0,'11111222,11111222,99999999' 
TABS,ioos:station:wmo:42051:1,2006-02-04T00:30:00Z,29.6350,-93.6417,2.0,245.0087027,28.00166602,-99999.0,'11111222,11111222,99999999' 
TABS,ioos:station:wmo:42051:1,2006-02-04T01:00:00Z,29.6350,-93.6417,2.0,260.0022438,24.9996,-99999.0,'11111222,11111222,99999999' 
TABS,ioos:station:wmo:42051:1,2006-02-04T01:30:00Z,29.6350,-93.6417,2.0,248.0018212,26.00307097,-99999.0,'11111222,11111222,99999999' 
TABS,ioos:station:wmo:42051:1,2006-02-04T02:00:00Z,29.6350,-93.6417,2.0,251.0045843,21.99785444,-99999.0,'11111222,11111222,99999999' 
TABS,ioos:station:wmo:42051:1,2006-02-04T02:30:00Z,29.6350,-93.6417,2.0,251.0102855,16.9948757,-99999.0,'11111222,11111222,99999999' 
TABS,ioos:station:wmo:42051:1,2006-02-04T03:00:00Z,29.6350,-93.6417,2.0,228.0079814,18.99785514,-99999.0,'11111222,11111222,99999999' 
TABS,ioos:station:wmo:42051:1,2006-02-04T03:30:00Z,29.6350,-93.6417,2.0,230.9874664,15.997181,-99999.0,'11111222,11111222,99999999' 
TABS,ioos:station:wmo:42051:1,2006-02-04T04:00:00Z,29.6350,-93.6417,2.0,265.9874173,10.00451898,-99999.0,'11111222,11111222,99999999' 
TABS,ioos:station:wmo:42051:1,2006-02-04T04:30:00Z,29.6350,-93.6417,2.0,334.995961,11.00106358,-99999.0,'11111222,11111222,99999999' 
TABS,ioos:station:wmo:42051:1,2006-02-04T05:00:00Z,29.6350,-93.6417,2.0,15.02078551,12.00000833,-99999.0,'11111222,11111222,99999999' 
TABS,ioos:station:wmo:42051:1,2006-02-04T05:30:00Z,29.6350,-93.6417,2.0,58.97584556,12.99959999,-99999.0,'11111222,11111222,99999999' 
TABS,ioos:station:wmo:42051:1,2006-02-04T06:00:00Z,29.6350,-93.6417,2.0,59.9911549,13.99622806,-99999.0,'11111222,11111222,99999999' 
TABS,ioos:station:wmo:42051:1,2006-02-04T06:30:00Z,29.6350,-93.6417,2.0,242.0280599,2.004120755,-99999.0,'11133222,11111222,99999999' 
TABS,ioos:station:wmo:42051:1,2006-02-04T07:00:00Z,29.6350,-93.6417,2.0,39.01760229,4.002811512,-99999.0,'11133222,11111222,99999999' 
TABS,ioos:station:wmo:42051:1,2006-02-04T07:30:00Z,29.6350,-93.6417,2.0,257.0049927,2.00124961,-99999.0,'11133222,11111222,99999999' 
TABS,ioos:station:wmo:42051:1,2006-02-04T08:00:00Z,29.6350,-93.6417,2.0,179.9997895,4.0,-99999.0,'11133222,11111222,99999999' 
TABS,ioos:station:wmo:42051:1,2006-02-04T08:30:00Z,29.6350,-93.6417,2.0,315.0003157,2.998132752,-99999.0,'11133222,11111222,99999999' 
TABS,ioos:station:wmo:42051:1,2006-02-04T09:00:00Z,29.6350,-93.6417,2.0,347.0056241,4.002499219,-99999.0,'11133222,11111222,99999999' 
TABS,ioos:station:wmo:42051:1,2006-02-04T09:30:00Z,29.6350,-93.6417,2.0,45.00010523,8.004448763,-99999.0,'11133222,11111222,99999999' 
TABS,ioos:station:wmo:42051:1,2006-02-04T10:00:00Z,29.6350,-93.6417,2.0,81.00030423,10.99536266,-99999.0,'11111222,11111222,99999999' 
TABS,ioos:station:wmo:42051:1,2006-02-04T10:30:00Z,29.6350,-93.6417,2.0,76.99736155,16.00025312,-99999.0,'11111222,11111222,99999999' 
TABS,ioos:station:wmo:42051:1,2006-02-04T11:00:00Z,29.6350,-93.6417,2.0,80.23595984,15.92061871,-99999.0,'11111222,11111222,99999999' 
TABS,ioos:station:wmo:42051:1,2006-02-04T11:30:00Z,29.6350,-93.6417,2.0,77.99962495,13.99586367,-99999.0,'11111222,11111222,99999999' 
TABS,ioos:station:wmo:42051:1,2006-02-04T12:00:00Z,29.6350,-93.6417,2.0,68.98898096,14.00090354,-99999.0,'11111222,11111222,99999999' 
TABS,ioos:station:wmo:42051:1,2006-02-04T12:30:00Z,29.6350,-93.6417,2.0,84.00788015,15.99740604,-99999.0,'11111222,11111222,99999999' 
TABS,ioos:station:wmo:42051:1,2006-02-04T13:00:00Z,29.6350,-93.6417,2.0,74.99891753,18.00354687,-99999.0,'11111222,11111222,99999999' 
TABS,ioos:station:wmo:42051:1,2006-02-04T13:30:00Z,29.6350,-93.6417,2.0,61.99686905,17.99707198,-99999.0,'11111222,11111222,99999999' 
TABS,ioos:station:wmo:42051:1,2006-02-04T14:00:00Z,29.6350,-93.6417,2.0,68.98898096,14.00090354,-99999.0,'11111222,11111222,99999999' 
TABS,ioos:station:wmo:42051:1,2006-02-04T14:30:00Z,29.6350,-93.6417,2.0,79.99046308,20.99964047,-99999.0,'11111222,11111222,99999999' 
TABS,ioos:station:wmo:42051:1,2006-02-04T15:00:00Z,29.6350,-93.6417,2.0,83.00418982,22.00381785,-99999.0,'11111222,11111222,99999999' 
TABS,ioos:station:wmo:42051:1,2006-02-04T15:30:00Z,29.6350,-93.6417,2.0,81.00437809,22.00060226,-99999.0,'11111222,11111222,99999999' 
TABS,ioos:station:wmo:42051:1,2006-02-04T16:00:00Z,29.6350,-93.6417,2.0,89.01044634,22.00328157,-99999.0,'11111222,11111222,99999999' 